Location: Morlupo
(42.1333°N, 12.5000°E)
Time: 09:54:04
(UTC+00:00)

Cosmos 1891 Rocket - Visible Passes

Search period start: 18 January 2021 00:00
Search period end: 28 January 2021 00:00
Orbit: 933 x 1019 km, 82.9° (Epoch: 17 January)

Date Brightness Start Highest point End Pass type
(mag) Time Alt. Az. Time Alt. Az. Time Alt. Az.
18 Jan 6.1 03:44:17 10° SSE 03:49:43 32° E 03:55:04 10° NNE visible
18 Jan 4.9 05:29:14 10° SW 05:34:58 38° WNW 05:40:39 10° N visible
19 Jan 5.0 04:08:59 10° S 04:15:04 59° E 04:21:05 10° NNE visible
19 Jan 5.5 05:56:16 10° WSW 06:00:53 21° WNW 06:05:29 10° NNW visible
19 Jan 6.9 16:50:35 10° NNW 16:55:16 24° W 17:00:00 10° SW visible
20 Jan 7.1 02:52:38 10° ESE 02:56:00 15° E 02:59:18 10° NE visible
20 Jan 4.3 04:34:22 10° S 04:40:36 78° W 04:46:44 10° N visible
20 Jan 7.3 17:17:55 10° NW 17:20:23 13° W 17:22:52 10° WSW visible
21 Jan 6.3 03:16:01 10° SE 03:21:09 28° E 03:26:13 10° NNE visible
21 Jan 4.7 05:00:24 10° SSW 05:06:17 43° WNW 05:12:05 10° N visible
22 Jan 5.2 03:40:31 10° SSE 03:46:28 51° E 03:52:20 10° NNE visible
22 Jan 5.4 05:27:12 10° SW 05:32:09 25° WNW 05:37:02 10° NNW visible
23 Jan 7.2 02:24:58 10° ESE 02:27:28 13° E 02:29:58 10° NE visible
23 Jan 4.3 04:05:45 10° S 04:11:57 89° W 04:18:04 10° N visible
23 Jan 5.9 05:55:17 10° W 05:58:12 14° WNW 06:01:08 10° NW visible
23 Jan 7.2 16:48:35 10° NW 16:51:52 15° W 16:55:10 10° WSW visible
24 Jan 6.4 02:47:49 10° SE 02:52:35 24° E 02:57:19 10° NNE visible
24 Jan 4.5 04:31:37 10° SSW 04:37:35 50° WNW 04:43:30 10° N visible
25 Jan 5.4 03:12:06 10° SSE 03:17:52 44° E 03:23:34 10° NNE visible
25 Jan 5.2 04:58:13 10° SW 05:03:24 28° WNW 05:08:33 10° NNW visible
26 Jan 7.2 01:58:07 10° E 01:58:59 10° ENE 01:59:59 10° ENE visible
26 Jan 4.4 03:42:57 76° SE 03:43:18 79° E 03:49:23 10° N visible
26 Jan 5.8 05:27:47 14° W 05:29:24 16° WNW 05:32:58 10° NNW visible
27 Jan 6.6 02:25:16 19° ENE 02:25:16 19° ENE 02:28:21 10° NE visible
27 Jan 4.6 04:10:03 50° NW 04:10:03 50° NW 04:14:53 10° N visible
